Notices

What's New in latest Release from April 7th, 2021:

- Updated Glossary, including Speed of Maximum Gust, and Total Hourly Precipitation

- Updated national and regional climate services offices contacts and prices information

- Addition of station inventory lists for 1981-2010, 1971-2000, and 1961-1990 Normals.

If you haven't already, please take our survey and provide feedback about our website: https://eccc.sondage-survey.ca/f/LanguageSelection.aspx?s=442ca660-fcf1-47c0-95a9-59707d6fd709

Hourly Data Report for February 09, 2004

SHERBROOKE A
QUEBEC

45°26'00.000" N
71°41'00.000" W
241.40 m
7028124
71610
YSC

Download Data

Hourly Data (February 2004)
Hourly Data Report for February 9, 2004
TIME
LST
Temp Definition
°C
Dew Point Definition
°C
Rel Hum Definition
%
Precip. Amount Definition
mm

Wind Dir Definition
10's deg

Wind Spd Definition
km/h
Visibility Definition
km
Stn Press Definition
kPa
Hmdx Definition


Wind Chill Definition


Weather Definition


00:00 -14.2 -19.1 66     0 15.0 99.17      
01:00 -13.2 -17.9 68     0 15.0 99.17      
02:00 -9.2 -14.6 65   24 9 15.0 99.20   -14  
03:00 -8.4 -14.3 62   24 11 15.0 99.23   -14  
04:00 -8.1 -13.6 65   18 6 15.0 99.24   -11  
05:00 -6.7 -12.8 62   22 9 15.0 99.24   -11  
06:00 -6.7 -12.3 64   19 7 15.0 99.19   -10  
07:00 -6.2 -12.3 62   18 7 15.0 99.18   -10  
08:00 -6.3 -12.9 59   19 7 24.1 99.17   -10 Mostly Cloudy
09:00 -5.9 -13.4 55   23 7 24.1 99.14   -9 Mostly Cloudy
10:00 -4.1 -13.3 49   22 7 24.1 99.10   -7 Mostly Cloudy
11:00 -3.0 -13.8 43   21 11 24.1 99.04   -7 Mostly Cloudy
12:00 -1.3 -13.4 39   22 9 24.1 98.86   -5 Mostly Cloudy
13:00 -1.1 -13.7 38   22 11 24.1 98.76   -5 Mostly Cloudy
14:00 -0.6 -13.8 36   24 13 24.1 98.67   -5 Mostly Cloudy
15:00 -0.6 -14.5 34   21 15 24.1 98.61   -5 Mostly Cloudy
16:00 -0.4 -12.8 39   20 6 24.1 98.52   -2 Cloudy
17:00 -0.7 -11.9 42   22 4 24.1 98.51   -2 Cloudy
18:00 -0.1 -11.9 41   22 6 15.0 98.44   -2  
19:00 -0.1 -11.3 43   23 9 15.0 98.49   -3  
20:00 0.3 -10.9 43   21 9 15.0 98.44      
21:00 0.5 -9.6 47   23 15 15.0 98.41      
22:00 0.1 -6.5 61   25 28 3.7 98.41     Snow
23:00 0.4 -6.7 59   23 20 15.0 98.36     Snow

Notes on Data Quality.

Legend

  • E = Estimated
  • M = Missing
  • NA = Not Available*
  • [empty] = Indicates an unobserved value
Date modified: